sat.trackr.live / text

‹ back to catalog

QIANFAN-131

NORAD 69077 · 2026-104E

PAYLOAD ACTIVE UNKNOWN

§ Identity

Operator
Country
PRC
Launch date
2026-05-12
Launch site
TAISC
Launch vehicle
Mass (kg)
RCS (m²)

External: N2YO · Heavens-Above · Gunter

§ Orbital elements

Epoch: 2026-09-20T04:17:01.815072Z

Period
106.59 min
Inclination
88.9898°
Eccentricity
0.0002081
Mean motion
13.51025875 rev/d
Perigee alt
1,066.9 km
Apogee alt
1,070.0 km
Semi-major
7,446.6 km
B*
8.9264e-5
RAAN
331.7714°
Arg perigee
106.9892°
Mean anomaly
253.1487°
Rev number
1,798

§ Raw data

QIANFAN-1311 69077U 26104E   26263.17849323  .00000070  00000+0  89264-4 0  99972 69077  88.9898 331.7714 0002081 106.9892 253.1487 13.51025875 17985

JSON: /api/v1/satellites/69077 · /tle

For live sub-satellite position, see the globe view (requires WebGL).

§ Visibility from observer

Set your observer location to see the next 7 days of passes ≥ 10°. The values pass through the URL so the page stays shareable.

No JS? Fill the form by hand. The geolocation button needs JavaScript.